Home > Weather > Sanikiluaq > Past weeks

Flag for Canada Past Weather in Sanikiluaq, Nunavut, Canada — Yesterday and Last 2 Weeks

Now
63 °F

Sunny.


Feels Like: 63 °F
Forecast: 44 / 54 °F
Wind: 9 mph from East

Location: Kuujjuarapik

Current Time: Jul 25, 2016 at 10:10:04 AM

Latest Report: Jul 25, 2016 at 9:00 AM


Visibility: 9 mi

Pressure: 29.73 "Hg

Humidity: 73%

Dew Point: 54 °F

Location of SanikiluaqLocation

Past Weather in Sanikiluaq — Graph

°F

Sanikiluaq Temperature Yesterday

Maximum temperature yesterday: 64 °F (at 3:00 PM)
Minimum temperature yesterday: 39 °F (at 2:51 AM)
Average temperature yesterday: 50 °F

High & Low Weather Summary for the Past Weeks

 TemperatureHumidityPressure
High86 °F (Jul 12, 4:00 PM)100% (Jul 10, 9:00 AM)30.06 "Hg (Jul 10, 9:00 AM)
Low37 °F (Jul 19, 7:00 AM)21% (Jul 12, 1:00 PM)29.26 "Hg (Jul 14, 7:00 AM)
Average54 °F84%29.72 "Hg
* Reported Jul 10 9:00 AM — Jul 25 9:00 AM, Sanikiluaq, Weather by CustomWeather, © 2016

Note: Actual official high and low records may vary slightly from our data, if they occured in-between our weather recording intervals... More about our weather records

Advertising

Sanikiluaq Weather History for the Previous 24 Hours

Scroll right to see more
 ConditionsComfort  
Time TempWeatherWind HumidityBarometerVisibility
9:00 AM
Mon, Jul 25
63 °FSunny.9 mph73%29.73 "Hg9 mi
8:00 AM59 °FSunny.15 mph77%29.75 "Hg9 mi
7:00 AM57 °FSunny.15 mph77%29.76 "Hg9 mi
6:00 AM55 °FPassing clouds.15 mph82%29.77 "Hg9 mi
5:00 AM55 °FPassing clouds.13 mph82%29.77 "Hg9 mi
4:00 AM55 °FPassing clouds.12 mph82%29.79 "Hg9 mi
3:00 AM57 °FPassing clouds.10 mph77%29.80 "Hg9 mi
2:00 AM59 °FOvercast.8 mph77%29.83 "Hg9 mi
1:00 AM59 °FOvercast.7 mph77%29.85 "Hg9 mi
12:00 AM59 °FOvercast.5 mph77%29.85 "Hg9 mi
11:00 PM
Sun, Jul 24
57 °FOvercast.5 mph82%29.87 "Hg9 mi
10:00 PM55 °FPartly sunny.No wind82%29.88 "Hg9 mi
9:00 PM57 °FPassing clouds.2 mph82%29.87 "Hg9 mi
8:00 PM61 °FSunny.6 mph72%29.88 "Hg9 mi
7:00 PM63 °FPartly sunny.5 mph68%29.88 "Hg9 mi
6:00 PM64 °FSunny.7 mph64%29.89 "Hg9 mi
5:00 PM63 °FSunny.10 mph68%29.91 "Hg9 mi
4:00 PM61 °FSunny.12 mph68%29.93 "Hg9 mi
3:00 PM64 °FSunny.8 mph60%29.94 "Hg9 mi
2:00 PM61 °FOvercast.7 mph68%29.96 "Hg9 mi
1:00 PM57 °FPartly sunny.7 mph77%29.97 "Hg9 mi
12:00 PM54 °FOvercast.8 mph82%29.99 "Hg9 mi
11:00 AM52 °FOvercast.7 mph82%30.01 "Hg9 mi
10:00 AM48 °FOvercast.6 mph94%30.03 "Hg9 mi
Weather by CustomWeather, © 2016

See weather overviewHow to use our weather pages